QPF
0.00 0.00 0.00 0.00 0.00 0.00 0.00 0.00 0.00 0.00 0.00 0.00 0.00 0.00 0.00 0.00 0.00 0.00 0.00 0.00 0.00 0.00 0.00 0.00 0.00 0.00 0.00 0.00 0.00 0.00 0.00 0.00 0.02 0.03 0.05 0.03 0.03 0.01 0.00 0.01 0.00 0.00 0.00 0.00 0.00 0.00 0.00 0.00 0.00 0.00 0.00 0.00 0.00 0.00
0.00 0.00 0.00 0.00 0.00 0.00 0.00 0.00 0.00 0.00 0.00 0.00 0.00 0.00 0.00 0.00 0.00 0.00 0.00 0.00 0.00 0.00 0.00 0.00 0.00 0.00 0.00 0.00 0.00 0.00 0.00 0.00 0.02 0.04 0.04 0.03 0.01 0.01 0.00 0.00 0.00 0.00 0.00 0.00 0.00 0.00 0.00 0.00 0.00 0.00 0.01 0.02 0.00 0.00
0.00 0.00 0.00 0.00 0.00 0.00 0.00 0.00 0.00 0.00 0.00 0.00 0.00 0.00 0.00 0.00 0.00 0.00 0.00 0.00 0.00 0.00 0.00 0.00 0.00 0.00 0.00 0.00 0.00 0.00 0.01 0.00 0.00 0.01 0.03 0.03 0.01 0.00 0.00 0.00 0.00 0.00 0.00 0.00 0.00 0.00 0.00 0.00 0.00 0.01 0.02 0.02 0.02 0.01
0.00 0.00 0.00 0.00 0.00 0.00 0.00 0.00 0.00 0.00 0.00 0.00 0.00 0.00 0.00 0.00 0.00 0.00 0.00 0.00 0.00 0.00 0.00 0.00 0.00 0.00 0.00 0.00 0.00 0.00 0.00 0.02 0.03 0.03 0.06 0.09 0.05 0.00 0.00 0.00 0.00 0.00 0.00 0.00 0.01 0.00 0.00 0.00 0.00 0.03 0.03 0.00 0.01 0.02
0.00 0.00 0.00 0.00 0.00 0.00 0.00 0.00 0.00 0.00 0.00 0.00 0.00 0.00 0.00 0.00 0.00 0.00 0.00 0.00 0.00 0.00 0.00 0.00 0.00 0.00 0.00 0.00 0.00 0.00 0.00 0.00 0.04 0.08 0.08 0.17 0.06 0.01 0.00 0.00 0.00 0.00 0.00 0.00 0.00 0.00 0.01 0.00 0.01 0.04 0.07 0.03 0.02 0.05
0.00 0.00 0.00 0.00 0.00 0.00 0.00 0.00 0.00 0.00 0.00 0.00 0.00 0.00 0.00 0.00 0.00 0.00 0.00 0.00 0.00 0.00 0.00 0.00 0.00 0.00 0.00 0.00 0.00 0.00 0.00 0.00 0.01 0.06 0.06 0.11 0.03 0.01 0.00 0.00 0.00 0.00 0.00 0.00 0.00 0.00 0.00 0.00 0.00 0.01 0.04 0.02 0.03 0.03
0.00 0.00 0.00 0.00 0.00 0.00 0.00 0.00 0.00 0.00 0.00 0.00 0.00 0.00 0.00 0.00 0.00 0.00 0.00 0.00 0.00 0.00 0.00 0.00 0.00 0.00 0.00 0.00 0.00 0.00 0.00 0.00 0.00 0.02 0.02 0.05 0.02 0.00 0.00 0.00 0.00 0.00 0.00 0.00 0.00 0.00 0.01 0.01 0.01 0.00 0.00 0.01 0.02 0.03
0.00 0.00 0.00 0.00 0.00 0.00 0.00 0.00 0.00 0.00 0.00 0.00 0.00 0.00 0.00 0.00 0.00 0.00 0.00 0.00 0.00 0.00 0.00 0.00 0.00 0.00 0.00 0.00 0.00 0.00 0.00 0.00 0.00 0.00 0.02 0.02 0.01 0.00 0.00 0.00 0.00 0.00 0.01 0.01 0.00 0.00 0.00 0.01 0.01 0.00 0.03 0.03 0.01 0.01
0.00 0.00 0.00 0.00 0.00 0.00 0.00 0.00 0.00 0.00 0.00 0.00 0.00 0.00 0.00 0.00 0.00 0.00 0.00 0.00 0.00 0.00 0.00 0.00 0.00 0.00 0.00 0.00 0.00 0.00 0.00 0.00 0.00 0.00 0.01 0.02 0.02 0.00 0.01 0.01 0.01 0.01 0.01 0.01 0.00 0.00 0.00 0.00 0.00 0.00 0.01 0.01 0.01 0.01
0.00 0.01 0.01 0.00 0.00 0.00 0.00 0.00 0.00 0.00 0.00 0.00 0.00 0.00 0.00 0.00 0.00 0.00 0.00 0.00 0.00 0.00 0.00 0.00 0.00 0.01 0.00 0.00 0.00 0.00 0.00 0.00 0.00 0.00 0.00 0.00 0.04 0.04 0.01 0.03 0.05 0.03 0.00 0.00 0.00 0.00 0.00 0.00 0.00 0.00 0.00 0.01 0.04 0.10
0.00 0.00 0.00 0.00 0.00 0.00 0.00 0.00 0.00 0.00 0.00 0.00 0.00 0.00 0.00 0.00 0.00 0.00 0.00 0.00 0.00 0.00 0.00 0.00 0.00 0.01 0.00 0.00 0.00 0.00 0.00 0.00 0.00 0.00 0.00 0.00 0.05 0.09 0.13 0.08 0.07 0.04 0.02 0.00 0.00 0.00 0.00 0.00 0.00 0.00 0.00 0.02 0.05 0.05
0.00 0.00 0.00 0.00 0.00 0.00 0.00 0.00 0.00 0.00 0.00 0.00 0.00 0.00 0.00 0.00 0.00 0.01 0.00 0.00 0.00 0.00 0.00 0.00 0.00 0.00 0.00 0.00 0.00 0.01 0.00 0.00 0.00 0.00 0.01 0.00 0.04 0.07 0.16 0.22 0.17 0.10 0.07 0.06 0.05 0.06 0.08 0.07 0.09 0.06 0.05 0.03 0.03 0.02
0.00 0.00 0.00 0.00 0.00 0.00 0.00 0.00 0.00 0.00 0.00 0.00 0.00 0.00 0.00 0.01 0.01 0.00 0.00 0.00 0.00 0.00 0.01 0.00 0.00 0.00 0.00 0.00 0.01 0.03 0.00 0.00 0.00 0.00 0.00 0.01 0.03 0.02 0.07 0.08 0.07 0.12 0.12 0.07 0.03 0.03 0.06 0.10 0.07 0.04 0.01 0.00 0.00 0.00
0.00 0.00 0.00 0.00 0.00 0.00 0.00 0.00 0.00 0.00 0.00 0.00 0.00 0.00 0.01 0.00 0.00 0.00 0.00 0.00 0.00 0.01 0.00 0.00 0.00 0.00 0.00 0.00 0.00 0.00 0.00 0.00 0.01 0.01 0.00 0.00 0.01 0.01 0.00 0.00 0.01 0.05 0.04 0.04 0.02 0.01 0.00 0.00 0.00 0.00 0.00 0.00 0.00 0.00
0.00 0.00 0.00 0.00 0.00 0.00 0.00 0.00 0.00 0.00 0.00 0.00 0.00 0.00 0.00 0.00 0.00 0.00 0.00 0.02 0.01 0.03 0.02 0.00 0.01 0.01 0.00 0.00 0.00 0.00 0.01 0.00 0.01 0.01 0.01 0.00 0.00 0.00 0.00 0.00 0.01 0.02 0.02 0.00 0.00 0.00 0.00 0.00 0.00 0.00 0.00 0.00 0.00 0.00
0.00 0.00 0.00 0.00 0.00 0.00 0.00 0.00 0.00 0.00 0.00 0.00 0.00 0.00 0.01 0.01 0.00 0.00 0.01 0.04 0.02 0.04 0.06 0.06 0.03 0.03 0.02 0.00 0.00 0.00 0.00 0.00 0.03 0.04 0.01 0.00 0.00 0.00 0.00 0.00 0.01 0.02 0.00 0.00 0.00 0.00 0.00 0.00 0.00 0.00 0.00 0.00 0.00 0.00
0.00 0.00 0.00 0.00 0.00 0.00 0.00 0.00 0.00 0.00 0.00 0.00 0.00 0.00 0.00 0.01 0.01 0.02 0.03 0.02 0.01 0.02 0.04 0.02 0.05 0.01 0.00 0.00 0.01 0.05 0.06 0.07 0.05 0.03 0.02 0.00 0.00 0.00 0.00 0.00 0.01 0.00 0.00 0.00 0.00 0.00 0.00 0.00 0.00 0.00 0.00 0.00 0.00 0.00
0.00 0.00 0.00 0.00 0.00 0.00 0.00 0.00 0.00 0.00 0.00 0.00 0.00 0.01 0.01 0.03 0.04 0.02 0.06 0.02 0.03 0.04 0.03 0.01 0.00 0.02 0.02 0.02 0.02 0.13 0.18 0.16 0.07 0.01 0.00 0.01 0.01 0.01 0.00 0.00 0.02 0.01 0.00 0.00 0.00 0.00 0.00 0.00 0.00 0.00 0.00 0.00 0.00 0.00
0.00 0.00 0.00 0.00 0.00 0.00 0.00 0.00 0.00 0.00 0.00 0.00 0.01 0.02 0.02 0.06 0.05 0.07 0.04 0.03 0.01 0.01 0.00 0.00 0.00 0.01 0.03 0.05 0.05 0.06 0.09 0.09 0.04 0.01 0.00 0.00 0.00 0.00 0.00 0.00 0.01 0.00 0.00 0.00 0.00 0.00 0.00 0.00 0.00 0.00 0.00 0.00 0.00 0.00
0.00 0.00 0.00 0.00 0.00 0.00 0.00 0.01 0.00 0.00 0.02 0.03 0.02 0.01 0.01 0.01 0.04 0.03 0.01 0.01 0.00 0.00 0.00 0.00 0.00 0.00 0.00 0.05 0.11 0.06 0.02 0.03 0.00 0.00 0.00 0.00 0.00 0.00 0.00 0.00 0.00 0.00 0.00 0.00 0.00 0.00 0.00 0.00 0.00 0.00 0.00 0.00 0.00 0.00
0.00 0.00 0.00 0.00 0.00 0.00 0.00 0.01 0.00 0.01 0.03 0.09 0.06 0.01 0.00 0.03 0.06 0.03 0.00 0.00 0.00 0.00 0.00 0.01 0.00 0.00 0.01 0.03 0.03 0.03 0.04 0.02 0.00 0.00 0.00 0.00 0.00 0.00 0.00 0.00 0.00 0.00 0.00 0.00 0.00 0.00 0.00 0.00 0.00 0.00 0.00 0.00 0.00 0.00
0.01 0.00 0.00 0.00 0.00 0.00 0.00 0.01 0.01 0.01 0.01 0.02 0.01 0.00 0.00 0.02 0.01 0.00 0.00 0.00 0.00 0.00 0.00 0.00 0.00 0.00 0.00 0.00 0.00 0.00 0.00 0.00 0.00 0.00 0.00 0.00 0.00 0.00 0.00 0.00 0.00 0.00 0.00 0.00 0.00 0.00 0.00 0.00 0.00 0.00 0.00 0.00 0.00 0.00
0.00 0.00 0.00 0.00 0.00 0.01 0.01 0.01 0.02 0.02 0.01 0.01 0.00 0.01 0.01 0.03 0.02 0.00 0.00 0.00 0.01 0.01 0.00 0.00 0.00 0.00 0.00 0.00 0.00 0.00 0.00 0.00 0.00 0.00 0.00 0.00 0.00 0.00 0.00 0.00 0.00 0.00 0.00 0.00 0.00 0.00 0.00 0.00 0.00 0.00 0.00 0.00 0.00 0.00
0.00 0.00 0.00 0.00 0.03 0.02 0.01 0.00 0.01 0.02 0.02 0.01 0.01 0.01 0.03 0.03 0.02 0.00 0.00 0.02 0.01 0.00 0.00 0.00 0.00 0.00 0.00 0.00 0.00 0.00 0.00 0.00 0.00 0.00 0.00 0.00 0.00 0.00 0.00 0.00 0.00 0.00 0.00 0.00 0.00 0.00 0.00 0.00 0.00 0.00 0.00 0.00 0.00 0.00
0.00 0.00 0.00 0.01 0.02 0.03 0.01 0.00 0.01 0.01 0.00 0.00 0.00 0.02 0.02 0.01 0.01 0.00 0.00 0.00 0.00 0.01 0.01 0.00 0.00 0.00 0.00 0.00 0.00 0.00 0.00 0.00 0.00 0.00 0.00 0.00 0.00 0.00 0.00 0.00 0.00 0.00 0.00 0.00 0.00 0.00 0.00 0.00 0.00 0.00 0.00 0.00 0.00 0.00
0.00 0.00 0.01 0.03 0.04 0.03 0.02 0.02 0.02 0.00 0.00 0.00 0.00 0.02 0.01 0.01 0.00 0.00 0.00 0.00 0.00 0.00 0.00 0.00 0.00 0.00 0.00 0.00 0.00 0.00 0.00 0.00 0.00 0.00 0.00 0.00 0.00 0.00 0.00 0.00 0.00 0.00 0.00 0.00 0.00 0.00 0.00 0.00 0.00 0.00 0.00 0.00 0.00 0.00
0.02 0.04 0.04 0.03 0.02 0.01 0.01 0.00 0.00 0.01 0.02 0.01 0.01 0.01 0.00 0.00 0.00 0.00 0.00 0.00 0.00 0.00 0.00 0.00 0.00 0.00 0.00 0.00 0.00 0.00 0.00 0.00 0.00 0.00 0.00 0.00 0.00 0.00 0.00 0.00 0.00 0.00 0.00 0.00 0.00 0.00 0.00 0.00 0.00 0.00 0.00 0.00 0.00 0.00
0.06 0.05 0.03 0.03 0.03 0.02 0.01 0.01 0.01 0.01 0.02 0.01 0.01 0.01 0.00 0.00 0.00 0.00 0.00 0.00 0.00 0.00 0.00 0.00 0.00 0.00 0.00 0.00 0.00 0.00 0.00 0.00 0.00 0.00 0.00 0.00 0.00 0.00 0.00 0.00 0.00 0.00 0.00 0.00 0.00 0.00 0.00 0.00 0.00 0.00 0.00 0.00 0.00 0.00
0.07 0.05 0.04 0.04 0.04 0.03 0.03 0.02 0.02 0.02 0.01 0.01 0.00 0.00 0.00 0.00 0.00 0.00 0.00 0.00 0.00 0.00 0.00 0.00 0.00 0.00 0.00 0.00 0.00 0.00 0.00 0.00 0.00 0.00 0.00 0.00 0.00 0.00 0.00 0.00 0.00 0.00 0.00 0.00 0.00 0.00 0.00 0.00 0.00 0.00 0.00 0.00 0.00 0.00
0.01 0.00 0.00 0.00 0.00 0.00 0.00 0.00 0.00 0.00 0.00 0.00 0.00 0.00 0.00 0.00 0.00 0.00 0.00 0.00 0.00 0.00 0.00 0.00 0.00 0.00 0.00 0.00 0.00 0.00 0.00 0.00 0.00 0.00 0.00 0.00 0.00 0.00 0.00 0.00 0.00 0.00 0.00 0.00 0.00 0.00 0.00 0.00 0.00 0.00 0.00 0.00 0.00 0.00
0.00 0.00 0.00 0.00 0.00 0.00 0.00 0.00 0.00 0.00 0.00 0.00 0.00 0.00 0.00 0.00 0.00 0.00 0.00 0.00 0.00 0.00 0.00 0.00 0.00 0.00 0.00 0.00 0.00 0.00 0.00 0.00 0.00 0.00 0.00 0.00 0.00 0.00 0.00 0.00 0.00 0.00 0.00 0.00 0.00 0.00 0.00 0.00 0.00 0.00 0.00 0.00 0.00 0.00
0.01 0.00 0.00 0.01 0.01 0.01 0.00 0.00 0.00 0.00 0.00 0.00 0.00 0.00 0.00 0.00 0.00 0.00 0.00 0.00 0.00 0.00 0.00 0.00 0.00 0.00 0.00 0.00 0.00 0.00 0.00 0.00 0.00 0.00 0.00 0.00 0.00 0.00 0.00 0.00 0.00 0.00 0.00 0.00 0.00 0.00 0.00 0.00 0.00 0.00 0.00 0.00 0.00 0.00
0.00 0.00 0.00 0.00 0.00 0.00 0.00 0.00 0.00 0.01 0.00 0.00 0.00 0.00 0.00 0.00 0.00 0.00 0.00 0.00 0.00 0.00 0.00 0.00 0.00 0.00 0.00 0.00 0.00 0.00 0.00 0.00 0.00 0.00 0.00 0.00 0.00 0.00 0.00 0.00 0.00 0.00 0.00 0.00 0.00 0.00 0.00 0.00 0.00 0.00 0.00 0.00 0.00 0.00
MSLP
1020.34 1020.11 1019.78 1019.57 1019.35 1018.98 1018.61 1018.29 1017.97 1017.74 1017.51 1017.32 1017.09 1016.91 1016.63 1016.19 1015.90 1015.66 1014.65 1013.70 1013.87 1013.56 1011.44 1010.24 1009.55 1009.04 1008.87 1008.66 1008.92 1008.58 1008.79 1008.65 1008.84 1009.81 1010.55 1011.43 1011.59 1011.50 1011.53 1011.00 1010.40 1010.44 1011.33 1010.77 1010.59 1010.02 1009.32 1008.24 1006.96 1007.12 1007.80 1007.13 1006.61 1006.75
1020.09 1019.93 1019.71 1019.49 1019.30 1019.06 1018.74 1018.35 1018.02 1017.70 1017.43 1017.27 1017.12 1016.94 1016.76 1016.48 1016.14 1015.65 1015.20 1013.68 1013.57 1013.66 1011.35 1009.63 1008.98 1008.27 1008.14 1007.84 1008.64 1008.62 1009.25 1009.58 1009.83 1010.69 1011.26 1011.24 1011.68 1011.83 1010.90 1010.57 1010.34 1010.22 1009.80 1009.87 1010.06 1009.90 1009.32 1008.95 1008.53 1008.00 1007.47 1008.01 1006.86 1006.64
1019.80 1019.71 1019.54 1019.31 1019.11 1018.95 1018.72 1018.35 1018.03 1017.74 1017.44 1017.27 1017.17 1017.00 1016.83 1016.58 1016.25 1016.18 1015.85 1014.83 1013.95 1013.38 1011.04 1009.31 1007.42 1006.12 1006.28 1006.50 1006.77 1007.94 1008.53 1008.63 1009.42 1009.79 1010.89 1011.43 1011.59 1011.35 1011.05 1009.89 1009.71 1009.35 1009.13 1009.25 1008.60 1009.23 1009.72 1008.87 1008.41 1008.14 1007.99 1007.81 1007.59 1007.22
1019.64 1019.45 1019.28 1019.11 1018.88 1018.66 1018.51 1018.30 1018.02 1017.76 1017.55 1017.41 1017.24 1017.04 1016.84 1016.52 1016.26 1016.20 1016.15 1014.97 1015.02 1014.17 1012.84 1008.90 1006.54 1005.56 1004.61 1004.90 1005.65 1006.08 1006.44 1007.44 1008.63 1009.80 1011.00 1011.42 1011.44 1011.10 1010.76 1010.01 1009.27 1008.77 1008.24 1008.15 1008.28 1008.73 1009.18 1008.18 1008.46 1007.49 1007.90 1008.50 1007.75 1007.44
1019.44 1019.25 1019.03 1018.86 1018.66 1018.44 1018.31 1018.13 1017.94 1017.76 1017.47 1017.33 1017.18 1016.98 1016.74 1016.37 1015.98 1015.47 1015.11 1014.50 1014.44 1014.70 1013.41 1010.40 1007.57 1005.17 1004.21 1004.18 1004.68 1005.12 1005.88 1007.00 1008.46 1010.02 1011.39 1011.69 1010.92 1011.36 1010.64 1009.80 1009.02 1008.23 1007.79 1007.55 1007.75 1007.48 1008.27 1008.60 1007.89 1005.51 1006.36 1006.29 1007.44 1008.54
1019.06 1018.99 1018.85 1018.69 1018.47 1018.24 1018.07 1017.89 1017.73 1017.51 1017.35 1017.21 1017.01 1016.81 1016.56 1016.27 1015.85 1015.25 1014.59 1013.98 1014.03 1014.21 1013.69 1011.65 1007.90 1005.43 1004.17 1003.80 1004.31 1004.69 1005.18 1005.90 1007.69 1009.15 1009.83 1010.69 1009.85 1010.01 1010.02 1009.52 1007.55 1007.02 1006.43 1005.66 1006.09 1007.01 1008.20 1007.99 1006.95 1006.27 1006.67 1006.03 1006.89 1007.08
1018.67 1018.58 1018.49 1018.42 1018.26 1018.06 1017.88 1017.71 1017.48 1017.25 1017.02 1016.80 1016.60 1016.42 1016.25 1016.13 1016.19 1015.75 1014.77 1013.90 1013.80 1014.17 1013.63 1012.12 1009.32 1005.75 1004.04 1004.18 1004.56 1004.75 1004.88 1005.45 1006.51 1007.80 1008.47 1008.75 1008.88 1008.89 1008.90 1008.43 1006.64 1006.51 1006.22 1006.07 1006.35 1007.21 1008.19 1008.17 1007.75 1006.77 1006.36 1006.58 1006.72 1007.25
1018.23 1018.21 1018.13 1018.07 1017.98 1017.79 1017.58 1017.41 1017.19 1016.91 1016.63 1016.37 1016.15 1015.92 1015.67 1015.44 1015.42 1014.85 1012.69 1012.27 1013.81 1014.20 1013.64 1012.32 1009.49 1006.93 1004.78 1004.92 1005.22 1004.81 1005.28 1005.76 1005.92 1006.60 1007.16 1007.59 1008.39 1008.32 1008.41 1007.20 1006.60 1006.39 1006.22 1006.54 1006.77 1006.84 1006.55 1006.74 1006.61 1006.36 1006.51 1006.91 1006.90 1007.41
1017.84 1017.79 1017.70 1017.66 1017.65 1017.54 1017.31 1017.09 1016.83 1016.52 1016.21 1015.94 1015.66 1015.28 1015.10 1014.72 1014.34 1012.87 1012.25 1012.23 1012.57 1013.50 1013.13 1011.93 1010.05 1007.85 1005.81 1005.66 1005.32 1005.23 1005.38 1006.16 1005.90 1006.40 1006.89 1007.60 1008.62 1009.32 1009.05 1007.78 1007.39 1007.00 1006.82 1006.53 1006.36 1006.25 1006.31 1006.04 1005.97 1006.18 1006.39 1007.02 1007.64 1008.42
1017.45 1017.30 1017.27 1017.33 1017.32 1017.21 1017.01 1016.76 1016.45 1016.06 1015.62 1015.34 1015.40 1015.08 1014.37 1013.09 1012.46 1012.42 1012.48 1012.69 1012.85 1012.72 1012.65 1011.64 1009.48 1008.32 1006.99 1006.32 1005.95 1005.87 1005.80 1006.20 1006.58 1006.58 1006.61 1007.69 1009.72 1010.35 1009.98 1009.54 1009.10 1008.21 1007.38 1006.99 1006.43 1006.86 1006.88 1007.09 1007.10 1007.44 1007.77 1008.24 1008.76 1009.48
1017.21 1017.15 1017.13 1017.06 1017.02 1016.93 1016.74 1016.53 1016.23 1015.72 1014.80 1015.17 1015.11 1014.68 1013.30 1012.47 1012.39 1012.48 1012.29 1012.36 1011.94 1011.76 1010.85 1009.55 1008.53 1008.17 1006.65 1006.53 1006.12 1006.19 1006.56 1006.64 1006.99 1007.29 1007.36 1009.09 1010.94 1011.47 1010.89 1010.13 1010.05 1009.70 1009.11 1008.10 1007.83 1007.99 1007.86 1008.01 1007.97 1008.43 1009.16 1009.52 1010.08 1010.41
1016.95 1016.96 1016.89 1016.82 1016.78 1016.71 1016.59 1016.41 1016.16 1015.95 1015.77 1015.73 1015.70 1014.99 1013.88 1012.89 1012.51 1012.29 1011.73 1011.16 1010.64 1009.76 1008.38 1007.79 1007.07 1006.96 1006.46 1005.99 1006.35 1006.67 1007.08 1007.19 1007.72 1007.98 1008.73 1010.58 1012.01 1012.04 1011.24 1010.45 1010.49 1010.94 1011.35 1010.16 1009.18 1009.21 1009.54 1009.40 1009.62 1009.88 1009.91 1010.53 1011.04 1010.92
1016.76 1016.81 1016.79 1016.72 1016.66 1016.59 1016.48 1016.35 1016.18 1015.97 1015.54 1015.20 1015.16 1014.46 1013.52 1012.71 1012.19 1011.55 1010.73 1010.02 1009.35 1008.02 1007.27 1006.60 1006.43 1006.03 1005.90 1005.91 1007.05 1007.86 1007.87 1008.12 1008.07 1009.20 1010.63 1011.76 1012.32 1012.44 1011.92 1010.99 1010.77 1011.08 1011.92 1011.44 1010.57 1010.53 1010.56 1010.51 1010.52 1010.91 1011.21 1011.20 1011.46 1011.75
1016.57 1016.62 1016.66 1016.61 1016.47 1016.40 1016.38 1016.27 1016.11 1015.90 1015.84 1015.37 1014.63 1013.98 1013.16 1012.08 1011.07 1009.92 1009.30 1008.87 1008.05 1007.69 1007.14 1006.40 1006.28 1006.18 1006.06 1006.35 1007.10 1007.80 1008.13 1008.27 1009.35 1010.13 1010.95 1011.75 1012.13 1012.24 1012.00 1011.75 1011.01 1011.39 1011.39 1011.88 1011.53 1011.11 1011.09 1011.23 1011.52 1011.69 1011.77 1011.86 1012.00 1012.35
1016.32 1016.45 1016.49 1016.39 1016.19 1016.18 1016.22 1016.17 1016.09 1016.09 1015.86 1015.37 1014.59 1013.57 1012.34 1010.97 1010.05 1009.26 1008.59 1008.29 1008.14 1007.69 1007.32 1006.78 1006.86 1006.62 1006.65 1006.84 1007.04 1007.70 1008.38 1009.08 1009.43 1009.99 1010.91 1011.74 1011.96 1012.22 1012.01 1011.91 1011.76 1011.71 1012.03 1011.96 1011.74 1011.72 1011.76 1011.81 1012.07 1012.34 1012.51 1012.62 1012.73 1012.89
1016.21 1016.38 1016.28 1016.04 1016.01 1016.07 1016.12 1016.10 1016.01 1015.80 1015.66 1015.28 1014.53 1013.30 1011.73 1010.82 1009.96 1009.17 1008.81 1008.48 1008.31 1007.79 1007.58 1007.62 1007.78 1007.91 1007.96 1008.10 1007.85 1008.19 1008.69 1009.21 1009.70 1010.23 1011.01 1011.75 1012.18 1012.32 1012.27 1012.28 1012.29 1012.47 1012.47 1012.53 1012.43 1012.44 1012.60 1012.71 1013.08 1013.42 1013.44 1013.57 1013.70 1013.72
1016.18 1016.19 1016.00 1016.05 1016.05 1016.08 1016.07 1016.18 1015.90 1015.62 1015.33 1014.49 1013.39 1012.27 1011.68 1010.94 1010.17 1009.59 1009.08 1008.70 1008.13 1008.14 1008.85 1008.75 1008.82 1009.07 1009.06 1008.73 1009.00 1009.23 1009.49 1009.61 1010.02 1010.87 1011.65 1012.12 1012.36 1012.54 1012.69 1012.58 1012.65 1012.78 1012.87 1013.04 1013.17 1013.40 1013.78 1014.03 1013.99 1014.27 1014.71 1015.00 1014.96 1015.20
1016.38 1016.13 1016.12 1016.13 1016.16 1016.08 1016.10 1016.01 1015.68 1015.16 1014.53 1013.48 1012.70 1011.64 1011.01 1010.50 1010.06 1009.67 1009.41 1008.94 1008.74 1008.70 1008.91 1009.32 1009.40 1009.60 1009.92 1010.13 1010.37 1010.39 1010.45 1010.49 1010.91 1011.28 1011.80 1012.37 1012.67 1012.83 1012.85 1013.03 1013.12 1013.21 1013.57 1014.03 1014.32 1014.66 1014.87 1014.76 1015.04 1015.74 1016.10 1016.21 1016.16 1016.35
1016.29 1016.25 1016.16 1016.13 1016.19 1016.17 1015.89 1015.43 1015.26 1014.40 1013.35 1012.59 1011.75 1011.23 1010.96 1010.82 1010.33 1009.95 1009.85 1009.02 1008.83 1008.70 1009.24 1010.00 1010.70 1011.17 1011.27 1011.08 1011.15 1011.21 1011.20 1010.95 1011.66 1012.06 1012.35 1012.69 1012.85 1013.06 1013.20 1013.40 1013.65 1013.97 1014.38 1014.95 1015.31 1015.70 1015.98 1016.00 1016.19 1016.35 1016.75 1016.87 1017.30 1017.51
1016.05 1015.99 1016.02 1016.10 1016.20 1015.99 1015.44 1014.59 1014.09 1013.75 1012.92 1012.18 1011.76 1011.72 1011.57 1011.48 1011.17 1010.50 1010.24 1010.13 1009.88 1010.06 1010.89 1011.65 1012.12 1012.06 1011.88 1011.79 1011.65 1011.72 1011.41 1011.83 1012.55 1012.95 1013.23 1013.47 1013.57 1013.69 1013.76 1013.97 1014.41 1014.84 1015.26 1015.65 1015.97 1016.10 1016.42 1016.78 1016.97 1017.07 1017.31 1017.65 1018.00 1018.32
1015.81 1015.57 1015.81 1016.02 1016.03 1015.87 1015.10 1013.97 1013.34 1012.71 1012.39 1012.13 1012.02 1011.80 1011.82 1011.49 1011.35 1011.11 1011.12 1010.95 1011.50 1012.21 1012.55 1012.99 1012.96 1012.81 1012.56 1012.16 1012.06 1012.10 1012.40 1012.52 1012.94 1013.04 1013.64 1014.23 1014.38 1014.42 1014.66 1014.98 1015.13 1015.45 1015.96 1016.39 1016.71 1017.07 1017.17 1017.53 1017.76 1017.70 1017.88 1018.26 1018.49 1018.72
1015.46 1015.48 1015.61 1015.78 1015.36 1014.78 1014.30 1013.05 1012.65 1012.32 1012.34 1012.24 1012.17 1012.23 1012.11 1011.76 1011.76 1011.79 1012.01 1012.39 1012.93 1013.05 1013.36 1013.75 1013.85 1013.46 1013.22 1013.10 1013.23 1013.20 1013.05 1013.14 1013.39 1013.76 1014.19 1014.48 1015.10 1015.45 1015.80 1015.96 1016.04 1016.44 1016.60 1016.87 1017.08 1017.43 1017.70 1017.79 1017.84 1017.97 1018.26 1018.65 1018.74 1018.90
1015.37 1015.18 1015.00 1014.75 1014.66 1013.92 1012.98 1012.10 1012.13 1012.51 1012.33 1012.31 1012.41 1012.49 1012.18 1011.98 1011.99 1012.11 1012.87 1013.38 1013.92 1014.11 1014.15 1014.20 1014.22 1014.07 1014.15 1014.04 1013.73 1013.65 1013.67 1014.00 1014.52 1014.77 1014.90 1015.12 1015.47 1015.81 1016.22 1016.56 1016.54 1016.81 1017.09 1017.42 1017.30 1017.52 1017.82 1017.91 1018.06 1018.17 1018.26 1018.53 1018.81 1018.91
1014.77 1014.84 1014.45 1014.17 1014.04 1013.23 1012.16 1011.89 1012.02 1011.87 1012.09 1012.34 1012.51 1012.43 1012.19 1012.09 1012.30 1013.03 1014.00 1014.62 1014.94 1014.80 1014.70 1014.57 1014.50 1014.46 1014.33 1014.30 1014.65 1014.67 1014.65 1014.61 1015.01 1015.39 1015.57 1015.81 1016.25 1016.65 1016.71 1017.09 1017.12 1017.29 1017.40 1017.55 1017.68 1017.78 1017.80 1017.95 1018.14 1018.20 1018.20 1018.32 1018.51 1018.60
1015.16 1014.61 1014.36 1013.73 1012.96 1012.59 1012.05 1011.59 1011.64 1011.79 1012.34 1012.67 1012.57 1012.51 1012.53 1012.28 1013.25 1014.41 1015.32 1016.00 1016.01 1015.52 1015.32 1015.15 1015.12 1015.16 1015.30 1015.47 1015.52 1015.45 1015.16 1015.19 1015.68 1016.28 1016.31 1016.09 1016.71 1017.23 1017.56 1017.66 1017.72 1017.85 1017.63 1017.82 1018.17 1018.03 1018.05 1018.03 1017.99 1018.09 1018.12 1018.12 1018.20 1018.19
1014.59 1013.70 1013.49 1012.98 1012.71 1012.46 1012.18 1011.93 1012.11 1012.51 1012.62 1012.69 1012.64 1012.58 1012.70 1013.27 1014.50 1015.49 1016.18 1016.51 1016.35 1016.15 1015.92 1015.76 1015.74 1015.84 1016.16 1016.04 1016.25 1016.14 1016.17 1015.95 1015.95 1016.66 1017.15 1016.89 1017.12 1017.57 1018.08 1018.40 1018.51 1018.42 1017.99 1018.06 1018.19 1018.31 1018.32 1018.23 1018.16 1018.09 1018.10 1018.01 1017.93 1017.91
1014.01 1013.35 1012.99 1012.76 1012.76 1012.59 1012.70 1012.73 1012.70 1012.74 1012.81 1012.76 1012.73 1012.85 1013.25 1014.22 1015.45 1016.37 1016.65 1016.70 1016.66 1016.52 1016.32 1015.84 1015.70 1015.88 1016.29 1016.38 1016.35 1016.25 1016.29 1016.28 1016.47 1016.88 1017.20 1017.29 1017.35 1017.57 1017.98 1018.30 1018.32 1018.36 1018.08 1018.05 1018.12 1018.20 1018.24 1018.23 1018.18 1018.07 1017.99 1017.77 1017.60 1017.51
1013.39 1013.30 1013.14 1013.09 1012.90 1012.80 1012.99 1013.27 1013.13 1013.01 1012.94 1012.90 1013.01 1013.51 1014.19 1014.94 1015.95 1016.38 1016.57 1016.57 1016.53 1016.43 1016.12 1015.85 1015.76 1015.80 1016.03 1016.19 1016.35 1016.55 1016.73 1016.76 1016.88 1017.04 1017.23 1017.52 1017.56 1017.47 1017.43 1017.55 1017.69 1017.82 1017.86 1017.87 1017.93 1017.98 1017.99 1017.99 1017.91 1017.79 1017.69 1017.60 1017.37 1017.14
1013.24 1013.13 1013.10 1013.33 1013.24 1013.30 1013.42 1013.37 1013.31 1013.14 1013.05 1013.12 1013.50 1014.58 1015.38 1015.71 1016.06 1016.26 1016.51 1016.45 1016.45 1016.50 1016.38 1016.11 1016.06 1016.01 1016.17 1016.33 1016.49 1016.71 1017.05 1017.09 1017.62 1017.76 1017.99 1018.17 1018.17 1018.17 1017.76 1017.65 1017.72 1017.82 1017.82 1017.72 1017.57 1017.61 1017.59 1017.43 1017.40 1017.46 1017.32 1017.25 1017.05 1016.84
1013.49 1013.23 1013.69 1013.89 1014.01 1014.11 1013.94 1013.72 1013.81 1013.44 1013.25 1013.51 1014.15 1015.09 1015.61 1015.92 1016.14 1016.16 1016.30 1016.46 1016.54 1016.54 1016.35 1016.25 1016.18 1016.23 1016.42 1016.70 1017.16 1017.33 1017.25 1017.13 1017.36 1017.78 1018.26 1018.43 1018.50 1018.25 1017.99 1017.94 1017.86 1017.57 1017.45 1017.47 1017.42 1017.15 1016.93 1017.08 1017.04 1016.92 1016.96 1016.84 1016.76 1016.74
1013.52 1013.82 1014.25 1014.56 1014.62 1014.44 1014.21 1014.00 1013.96 1013.97 1014.04 1014.33 1014.78 1015.19 1015.75 1015.92 1016.01 1016.01 1016.05 1016.06 1016.08 1016.04 1016.09 1015.93 1015.81 1015.78 1016.44 1016.73 1016.95 1017.25 1017.68 1017.67 1017.40 1017.47 1017.64 1017.91 1017.95 1017.94 1017.88 1017.77 1017.64 1017.44 1017.34 1017.24 1017.21 1017.21 1017.10 1017.06 1017.07 1016.98 1016.88 1016.73 1016.54 1016.34
1013.73 1014.05 1014.37 1014.79 1014.95 1014.65 1014.45 1014.57 1014.75 1014.93 1015.13 1015.31 1015.54 1015.59 1015.80 1015.91 1016.02 1015.70 1015.25 1015.39 1015.61 1015.74 1015.69 1015.63 1015.83 1016.25 1016.20 1016.31 1016.50 1016.70 1016.85 1017.28 1017.34 1017.38 1017.49 1017.69 1017.84 1017.85 1017.79 1017.73 1017.60 1017.45 1017.38 1017.31 1017.22 1017.14 1017.08 1017.02 1016.96 1016.79 1016.67 1016.47 1016.25 1016.01
1013.86 1014.05 1014.42 1014.78 1014.91 1014.77 1014.57 1014.55 1014.77 1015.04 1015.15 1015.36 1015.53 1015.58 1015.67 1015.80 1015.93 1015.53 1014.84 1014.85 1015.06 1015.05 1015.39 1015.36 1015.56 1015.69 1015.87 1016.02 1016.19 1016.38 1016.63 1016.83 1017.13 1017.28 1017.44 1017.55 1017.67 1017.79 1017.78 1017.75 1017.70 1017.61 1017.54 1017.48 1017.33 1017.20 1017.08 1016.87 1016.63 1016.44 1016.28 1016.08 1015.86 1015.57
Thickness
5507 5508 5514 5520 5526 5534 5541 5549 5556 5564 5572 5579 5587 5595 5603 5611 5618 5625 5638 5649 5651 5653 5668 5687 5696 5695 5695 5697 5694 5703 5700 5709 5704 5692 5692 5687 5687 5695 5699 5709 5715 5712 5701 5710 5709 5713 5720 5755 5769 5758 5759 5775 5783 5783
5504 5505 5507 5513 5519 5526 5534 5542 5550 5559 5567 5574 5581 5588 5596 5604 5611 5620 5628 5645 5650 5650 5668 5690 5697 5703 5704 5707 5699 5698 5695 5693 5696 5689 5689 5695 5694 5687 5700 5703 5720 5712 5718 5709 5715 5719 5739 5747 5751 5760 5764 5759 5778 5774
5501 5502 5503 5507 5512 5520 5527 5536 5544 5552 5561 5568 5575 5582 5590 5598 5606 5611 5618 5630 5642 5647 5667 5681 5695 5717 5722 5720 5720 5694 5698 5705 5701 5703 5690 5686 5688 5692 5690 5709 5715 5723 5729 5716 5727 5733 5729 5739 5752 5757 5761 5757 5762 5769
5496 5498 5500 5503 5508 5515 5522 5530 5538 5546 5554 5561 5569 5577 5585 5594 5601 5606 5612 5626 5628 5637 5645 5677 5711 5714 5730 5730 5725 5723 5720 5716 5708 5697 5683 5681 5682 5694 5694 5706 5711 5719 5731 5728 5723 5726 5727 5741 5743 5749 5748 5742 5751 5754
5491 5494 5497 5500 5504 5511 5517 5525 5532 5540 5548 5556 5564 5573 5581 5590 5599 5609 5617 5626 5628 5630 5637 5661 5692 5716 5725 5729 5725 5727 5722 5712 5698 5685 5673 5674 5681 5683 5692 5702 5707 5719 5716 5712 5706 5726 5722 5722 5736 5767 5756 5750 5744 5736
5488 5490 5493 5496 5500 5506 5513 5520 5528 5535 5543 5551 5561 5569 5578 5586 5596 5607 5622 5626 5628 5630 5635 5643 5684 5705 5720 5727 5723 5724 5724 5719 5703 5690 5687 5679 5691 5691 5688 5691 5724 5731 5736 5746 5736 5732 5723 5730 5748 5758 5748 5751 5749 5751
5484 5487 5490 5493 5498 5503 5509 5516 5524 5532 5541 5550 5559 5568 5576 5583 5590 5599 5618 5625 5627 5627 5633 5640 5659 5698 5718 5718 5713 5715 5721 5718 5712 5698 5697 5698 5699 5704 5696 5697 5730 5735 5741 5743 5740 5730 5719 5724 5728 5746 5750 5750 5750 5747
5481 5484 5487 5491 5495 5500 5507 5514 5522 5530 5539 5549 5558 5567 5576 5584 5591 5600 5623 5632 5623 5622 5628 5633 5655 5678 5709 5697 5694 5708 5707 5709 5713 5707 5705 5708 5701 5703 5702 5719 5726 5732 5736 5734 5733 5732 5734 5735 5734 5741 5743 5740 5741 5739
5477 5481 5485 5489 5493 5498 5504 5512 5521 5530 5539 5548 5558 5568 5576 5584 5593 5613 5623 5628 5629 5625 5627 5637 5649 5662 5695 5691 5695 5701 5703 5693 5709 5705 5704 5701 5689 5684 5698 5710 5716 5720 5722 5726 5733 5733 5733 5735 5736 5737 5739 5735 5730 5725
5473 5478 5482 5486 5491 5496 5503 5511 5520 5530 5540 5549 5557 5567 5582 5595 5604 5612 5616 5617 5618 5623 5625 5632 5656 5660 5680 5682 5687 5693 5693 5689 5685 5696 5705 5690 5677 5677 5682 5690 5691 5702 5714 5720 5722 5717 5717 5716 5721 5720 5716 5715 5713 5707
5470 5474 5478 5484 5489 5495 5501 5509 5518 5529 5542 5547 5560 5573 5585 5595 5602 5606 5612 5614 5623 5628 5636 5648 5659 5658 5682 5674 5681 5688 5684 5683 5678 5686 5691 5672 5658 5662 5673 5679 5679 5682 5693 5703 5706 5704 5705 5706 5709 5705 5699 5699 5696 5693
5467 5471 5476 5481 5487 5492 5499 5505 5514 5523 5530 5537 5544 5557 5574 5589 5596 5603 5608 5622 5629 5639 5656 5660 5666 5669 5677 5685 5680 5679 5679 5676 5674 5679 5672 5658 5655 5660 5668 5675 5674 5670 5667 5677 5687 5688 5687 5691 5689 5688 5691 5687 5683 5683
5463 5467 5472 5478 5484 5490 5496 5502 5510 5518 5528 5539 5549 5565 5577 5585 5587 5599 5609 5623 5631 5652 5662 5672 5670 5678 5682 5682 5668 5663 5666 5664 5674 5657 5647 5646 5650 5652 5658 5666 5666 5661 5655 5662 5673 5675 5676 5678 5679 5676 5673 5675 5674 5671
5460 5464 5469 5475 5482 5488 5494 5500 5508 5517 5524 5538 5556 5558 5574 5585 5596 5612 5623 5633 5645 5652 5661 5670 5670 5672 5677 5676 5666 5666 5664 5664 5653 5651 5650 5649 5649 5651 5654 5657 5664 5659 5659 5655 5660 5665 5666 5667 5665 5664 5663 5663 5661 5657
5459 5462 5467 5474 5481 5487 5493 5499 5507 5514 5522 5536 5551 5562 5577 5598 5609 5623 5634 5638 5643 5650 5656 5663 5662 5669 5670 5672 5666 5663 5659 5651 5656 5654 5650 5646 5648 5649 5652 5654 5653 5652 5649 5652 5656 5658 5658 5659 5657 5654 5651 5648 5647 5645
5457 5459 5466 5473 5480 5486 5492 5498 5506 5515 5522 5531 5544 5561 5580 5593 5606 5618 5625 5632 5637 5647 5651 5652 5653 5648 5652 5651 5661 5659 5654 5653 5652 5650 5652 5646 5644 5644 5646 5647 5648 5646 5645 5644 5645 5647 5648 5648 5642 5638 5638 5636 5635 5634
5454 5456 5464 5471 5478 5485 5491 5497 5505 5517 5526 5542 5554 5568 5577 5589 5600 5612 5620 5627 5639 5641 5634 5638 5639 5638 5641 5646 5645 5645 5646 5647 5649 5645 5641 5640 5638 5639 5639 5641 5641 5640 5638 5637 5637 5636 5633 5629 5628 5627 5622 5620 5618 5613
5450 5454 5460 5468 5476 5484 5490 5497 5508 5522 5536 5547 5559 5573 5586 5593 5602 5610 5616 5624 5629 5631 5634 5632 5635 5638 5633 5633 5631 5634 5639 5642 5641 5640 5637 5634 5634 5633 5634 5633 5634 5632 5629 5625 5623 5620 5620 5621 5617 5610 5604 5599 5597 5592
5449 5452 5458 5468 5476 5483 5494 5505 5510 5528 5543 5554 5568 5578 5585 5590 5598 5606 5611 5622 5628 5633 5629 5623 5619 5616 5620 5626 5628 5628 5631 5627 5625 5629 5631 5629 5630 5629 5629 5628 5626 5622 5618 5614 5611 5606 5602 5599 5597 5596 5588 5585 5580 5574
5451 5455 5461 5469 5477 5486 5500 5512 5520 5532 5546 5558 5568 5574 5579 5583 5588 5599 5606 5611 5616 5613 5610 5609 5610 5613 5616 5620 5623 5624 5629 5624 5621 5620 5620 5619 5619 5620 5620 5620 5615 5611 5609 5605 5601 5597 5592 5588 5583 5580 5575 5570 5566 5560
5456 5463 5468 5474 5482 5489 5503 5517 5530 5542 5550 5558 5566 5572 5576 5581 5584 5591 5595 5601 5597 5595 5598 5599 5601 5603 5609 5615 5617 5617 5616 5617 5616 5618 5613 5609 5609 5612 5611 5608 5605 5603 5598 5591 5586 5582 5579 5573 5569 5566 5564 5556 5552 5547
5468 5472 5478 5482 5493 5503 5510 5526 5537 5547 5551 5558 5564 5567 5571 5577 5580 5583 5587 5587 5586 5589 5589 5589 5591 5597 5602 5605 5604 5606 5609 5612 5610 5607 5604 5603 5599 5598 5595 5592 5594 5588 5585 5582 5578 5573 5569 5563 5560 5556 5551 5545 5540 5535
5477 5483 5491 5499 5504 5509 5517 5538 5545 5546 5552 5558 5562 5564 5571 5577 5581 5584 5579 5580 5578 5580 5582 5585 5588 5593 5594 5596 5600 5602 5602 5600 5595 5594 5594 5594 5591 5586 5584 5582 5581 5578 5574 5569 5568 5563 5559 5555 5551 5546 5543 5537 5530 5525
5489 5495 5504 5508 5509 5513 5537 5544 5546 5553 5557 5559 5563 5568 5574 5577 5581 5577 5574 5572 5571 5575 5578 5582 5585 5587 5590 5592 5590 5590 5592 5592 5588 5585 5584 5582 5578 5574 5573 5569 5567 5565 5563 5560 5556 5553 5550 5547 5542 5537 5534 5529 5524 5518
5494 5498 5500 5494 5520 5531 5542 5551 5553 5557 5554 5555 5564 5569 5570 5579 5573 5568 5565 5560 5560 5571 5575 5577 5579 5580 5581 5580 5580 5580 5583 5583 5580 5573 5573 5574 5570 5564 5558 5556 5555 5554 5553 5549 5545 5543 5540 5536 5533 5528 5524 5520 5516 5512
5491 5517 5517 5526 5531 5537 5541 5550 5552 5550 5555 5560 5565 5571 5573 5573 5567 5562 5558 5557 5559 5562 5567 5572 5572 5571 5569 5571 5570 5571 5570 5572 5572 5563 5559 5562 5560 5556 5549 5544 5540 5539 5542 5538 5534 5530 5526 5523 5520 5518 5513 5511 5506 5504
5511 5524 5528 5531 5534 5540 5543 5546 5550 5553 5558 5563 5568 5573 5574 5569 5560 5554 5550 5553 5557 5559 5560 5565 5569 5567 5564 5564 5565 5566 5565 5565 5562 5556 5552 5551 5550 5549 5545 5539 5538 5536 5534 5531 5527 5523 5518 5514 5510 5507 5504 5502 5500 5498
5529 5529 5532 5536 5540 5543 5545 5546 5551 5556 5560 5565 5569 5568 5568 5564 5556 5550 5551 5553 5554 5555 5558 5562 5565 5565 5563 5562 5560 5558 5557 5555 5553 5551 5548 5544 5543 5541 5540 5537 5533 5530 5526 5522 5518 5513 5510 5507 5504 5501 5499 5496 5494 5492
5534 5536 5539 5538 5543 5545 5546 5549 5554 5558 5560 5564 5565 5557 5551 5550 5549 5546 5547 5552 5554 5552 5555 5560 5560 5559 5556 5555 5554 5552 5549 5547 5544 5543 5541 5536 5533 5532 5532 5529 5525 5521 5517 5514 5512 5508 5505 5503 5501 5497 5495 5492 5489 5487
5534 5539 5538 5538 5539 5539 5543 5547 5549 5556 5560 5558 5557 5551 5546 5545 5547 5548 5548 5548 5548 5550 5552 5553 5552 5552 5551 5549 5544 5542 5543 5542 5540 5535 5528 5525 5524 5524 5523 5520 5517 5517 5514 5511 5508 5507 5505 5500 5497 5494 5491 5487 5483 5479
5540 5539 5538 5536 5537 5541 5546 5550 5552 5554 5555 5554 5551 5547 5542 5546 5546 5546 5546 5547 5548 5547 5547 5550 5552 5551 5547 5545 5541 5536 5531 5532 5534 5532 5528 5523 5520 5518 5516 5514 5513 5512 5510 5508 5504 5501 5499 5495 5490 5487 5486 5483 5481 5477
5543 5542 5541 5538 5537 5544 5547 5545 5545 5544 5545 5545 5545 5545 5545 5543 5542 5546 5551 5550 5549 5548 5549 5549 5547 5545 5544 5542 5542 5539 5536 5530 5527 5526 5523 5519 5517 5515 5513 5511 5509 5507 5504 5501 5498 5496 5493 5489 5485 5483 5479 5476 5474 5472
5544 5546 5542 5540 5541 5543 5546 5548 5547 5547 5547 5547 5546 5546 5545 5542 5540 5544 5552 5552 5550 5550 5547 5548 5546 5545 5543 5540 5537 5535 5532 5530 5528 5525 5522 5519 5516 5512 5509 5506 5504 5501 5498 5495 5492 5490 5487 5486 5482 5480 5476 5473 5471 5469